Time,TemperatureF,DewpointF,PressureIn,WindDirection,WindDirectionDegrees,WindSpeedMPH,WindSpeedGustMPH,Humidity,HourlyPrecipIn,Conditions,Clouds,dailyrainin,SolarRadiationWatts/m^2,SoftwareType,DateUTC
2013-09-26 00:02:00,32.0,32.0,-100.00,North,2,8.0,14.0,100,0.00,,,0.39,0.000000,,2013-09-26 06:02:00,
2013-09-26 00:42:00,32.0,32.0,-100.00,North,356,8.0,13.0,100,0.00,,,0.39,0.000000,,2013-09-26 06:42:00,
2013-09-26 00:53:00,32.0,32.0,-100.00,North,356,8.0,13.0,100,0.00,,,0.39,0.000000,,2013-09-26 06:53:00,
2013-09-26 01:01:00,32.0,32.0,-100.00,North,356,8.0,13.0,100,0.00,,,0.39,0.000000,,2013-09-26 07:01:00,
2013-09-26 01:42:00,31.0,31.0,-100.00,North,4,8.0,16.0,100,0.00,,,0.39,0.000000,,2013-09-26 07:42:00,
2013-09-26 01:53:00,31.0,31.0,-100.00,North,4,8.0,16.0,100,0.00,,,0.39,0.000000,,2013-09-26 07:53:00,
2013-09-26 02:02:00,31.0,31.0,-100.00,North,4,8.0,16.0,100,0.00,,,0.39,0.000000,,2013-09-26 08:02:00,
2013-09-26 02:42:00,31.0,31.0,-100.00,North,11,6.0,13.0,100,0.00,,,0.39,0.000000,,2013-09-26 08:42:00,
2013-09-26 02:52:00,31.0,31.0,-100.00,North,11,6.0,13.0,100,0.00,,,0.39,0.000000,,2013-09-26 08:52:00,
2013-09-26 03:02:00,31.0,31.0,-100.00,North,11,6.0,13.0,100,0.00,,,0.39,0.000000,,2013-09-26 09:02:00,
2013-09-26 03:43:00,31.0,31.0,-100.00,North,5,7.0,15.0,100,0.00,,,0.38,0.000000,,2013-09-26 09:43:00,
2013-09-26 03:53:00,31.0,31.0,-100.00,North,5,7.0,15.0,100,0.00,,,0.38,0.000000,,2013-09-26 09:53:00,
2013-09-26 04:03:00,31.0,31.0,-100.00,North,5,7.0,15.0,100,0.00,,,0.38,0.000000,,2013-09-26 10:03:00,
2013-09-26 04:42:00,31.0,31.0,-100.00,North,0,9.0,15.0,100,0.00,,,0.36,0.000000,,2013-09-26 10:42:00,
2013-09-26 04:53:00,31.0,31.0,-100.00,North,0,9.0,15.0,100,0.00,,,0.36,0.000000,,2013-09-26 10:53:00,
2013-09-26 05:02:00,31.0,31.0,-100.00,North,0,9.0,15.0,100,0.00,,,0.36,0.000000,,2013-09-26 11:02:00,
2013-09-26 05:42:00,30.0,30.0,-100.00,North,358,6.0,13.0,100,0.00,,,0.36,0.000000,,2013-09-26 11:42:00,
2013-09-26 05:52:00,30.0,30.0,-100.00,North,358,6.0,13.0,100,0.00,,,0.36,0.000000,,2013-09-26 11:52:00,
2013-09-26 06:01:00,30.0,30.0,-100.00,North,358,6.0,13.0,100,0.00,,,0.36,0.000000,,2013-09-26 12:01:00,
2013-09-26 06:42:00,30.0,30.0,-100.00,North,359,8.0,14.0,100,0.00,,,0.36,0.000000,,2013-09-26 12:42:00,
2013-09-26 06:52:00,30.0,30.0,-100.00,North,359,8.0,14.0,100,0.00,,,0.36,0.000000,,2013-09-26 12:52:00,
2013-09-26 07:02:00,30.0,30.0,-100.00,North,359,8.0,14.0,100,0.00,,,0.36,0.000000,,2013-09-26 13:02:00,
2013-09-26 07:42:00,30.0,30.0,-100.00,North,3,8.0,16.0,100,0.00,,,0.36,0.000000,,2013-09-26 13:42:00,
2013-09-26 07:52:00,30.0,30.0,-100.00,North,3,8.0,16.0,100,0.00,,,0.36,0.000000,,2013-09-26 13:52:00,
2013-09-26 08:02:00,30.0,30.0,-100.00,North,3,8.0,16.0,100,0.00,,,0.36,0.000000,,2013-09-26 14:02:00,
2013-09-26 08:42:00,30.0,30.0,-100.00,NNE,20,14.0,26.0,99,0.00,,,0.36,4.000000,,2013-09-26 14:42:00,
2013-09-26 08:52:00,30.0,30.0,-100.00,NNE,20,14.0,26.0,99,0.00,,,0.36,4.000000,,2013-09-26 14:52:00,
2013-09-26 09:02:00,30.0,30.0,-100.00,NNE,20,14.0,26.0,99,0.00,,,0.36,4.000000,,2013-09-26 15:02:00,
2013-09-26 09:44:00,29.0,27.0,-100.00,North,9,9.0,21.0,92,0.00,,,0.36,8.000000,,2013-09-26 15:44:00,
2013-09-26 09:54:00,29.0,27.0,-100.00,North,9,9.0,21.0,92,0.00,,,0.36,8.000000,,2013-09-26 15:54:00,
2013-09-26 10:04:00,29.0,27.0,-100.00,North,9,9.0,21.0,92,0.00,,,0.36,8.000000,,2013-09-26 16:04:00,
2013-09-26 10:43:00,30.0,29.0,-100.00,North,7,10.0,21.0,95,0.00,,,0.36,24.000000,,2013-09-26 16:43:00,
2013-09-26 10:53:00,30.0,29.0,-100.00,North,7,10.0,21.0,95,0.00,,,0.36,24.000000,,2013-09-26 16:53:00,
2013-09-26 11:03:00,30.0,29.0,-100.00,North,7,10.0,21.0,95,0.00,,,0.36,24.000000,,2013-09-26 17:03:00,
2013-09-26 11:43:00,32.0,30.0,-100.00,North,8,8.0,20.0,91,0.00,,,0.36,90.000000,,2013-09-26 17:43:00,
2013-09-26 11:52:00,32.0,30.0,-100.00,North,8,8.0,20.0,91,0.00,,,0.36,90.000000,,2013-09-26 17:52:00,
2013-09-26 12:01:00,32.0,30.0,-100.00,North,8,8.0,20.0,91,0.00,,,0.36,90.000000,,2013-09-26 18:01:00,
2013-09-26 12:42:00,33.0,29.0,-100.00,North,7,8.0,18.0,86,0.00,,,0.36,125.000000,,2013-09-26 18:42:00,
2013-09-26 12:52:00,33.0,29.0,-100.00,North,7,8.0,18.0,86,0.00,,,0.36,125.000000,,2013-09-26 18:52:00,
2013-09-26 13:03:00,33.0,29.0,-100.00,North,7,8.0,18.0,86,0.00,,,0.36,125.000000,,2013-09-26 19:03:00,
2013-09-26 13:44:00,35.0,31.0,-100.00,North,4,11.0,20.0,84,0.12,,,0.48,343.000000,,2013-09-26 19:44:00,
2013-09-26 13:52:00,35.0,31.0,-100.00,North,4,11.0,20.0,84,0.12,,,0.48,343.000000,,2013-09-26 19:52:00,
2013-09-26 14:02:00,35.0,31.0,-100.00,North,4,11.0,20.0,84,0.12,,,0.48,343.000000,,2013-09-26 20:02:00,
2013-09-26 14:43:00,35.0,30.0,-100.00,North,1,11.0,21.0,82,0.07,,,0.52,457.000000,,2013-09-26 20:43:00,
2013-09-26 14:52:00,35.0,30.0,-100.00,North,1,11.0,21.0,82,0.07,,,0.52,457.000000,,2013-09-26 20:52:00,
2013-09-26 15:02:00,35.0,30.0,-100.00,North,1,11.0,21.0,82,0.07,,,0.52,457.000000,,2013-09-26 21:02:00,
2013-09-26 15:44:00,36.0,30.0,-100.00,North,359,10.0,20.0,79,0.01,,,0.48,345.000000,,2013-09-26 21:44:00,
2013-09-26 15:54:00,36.0,30.0,-100.00,North,359,10.0,20.0,79,0.01,,,0.48,345.000000,,2013-09-26 21:54:00,
2013-09-26 16:04:00,36.0,30.0,-100.00,North,359,10.0,20.0,79,0.01,,,0.48,345.000000,,2013-09-26 22:04:00,
2013-09-26 16:43:00,37.0,29.0,-100.00,North,357,10.0,23.0,74,0.00,,,0.40,475.000000,,2013-09-26 22:43:00,
2013-09-26 16:54:00,37.0,29.0,-100.00,North,357,10.0,23.0,74,0.00,,,0.40,475.000000,,2013-09-26 22:54:00,
2013-09-26 17:03:00,37.0,29.0,-100.00,North,357,10.0,23.0,74,0.00,,,0.40,475.000000,,2013-09-26 23:03:00,
2013-09-26 17:42:00,35.0,31.0,-100.00,North,359,10.0,17.0,85,0.00,,,0.35,203.000000,,2013-09-26 23:42:00,
2013-09-26 17:53:00,35.0,31.0,-100.00,North,359,10.0,17.0,85,0.00,,,0.35,203.000000,,2013-09-26 23:53:00,
2013-09-26 18:02:00,35.0,31.0,-100.00,North,359,10.0,17.0,85,0.00,,,0.35,203.000000,,2013-09-27 00:02:00,
2013-09-26 18:43:00,33.0,28.0,-100.00,North,6,10.0,18.0,82,0.00,,,0.29,151.000000,,2013-09-27 00:43:00,
2013-09-26 18:52:00,33.0,28.0,-100.00,North,6,10.0,18.0,82,0.00,,,0.29,151.000000,,2013-09-27 00:52:00,
2013-09-26 19:01:00,33.0,28.0,-100.00,North,6,10.0,18.0,82,0.00,,,0.29,151.000000,,2013-09-27 01:01:00,
2013-09-26 19:42:00,32.0,27.0,-100.00,North,2,6.0,15.0,81,0.00,,,0.25,51.000000,,2013-09-27 01:42:00,
2013-09-26 19:52:00,32.0,27.0,-100.00,North,2,6.0,15.0,81,0.00,,,0.25,51.000000,,2013-09-27 01:52:00,
2013-09-26 20:02:00,32.0,27.0,-100.00,North,2,6.0,15.0,81,0.00,,,0.25,51.000000,,2013-09-27 02:02:00,
2013-09-26 20:43:00,31.0,28.0,-100.00,North,350,9.0,15.0,87,0.00,,,0.23,1.000000,,2013-09-27 02:43:00,
2013-09-26 20:53:00,31.0,28.0,-100.00,North,350,9.0,15.0,87,0.00,,,0.23,1.000000,,2013-09-27 02:53:00,
2013-09-26 21:02:00,31.0,28.0,-100.00,North,350,9.0,15.0,87,0.00,,,0.23,1.000000,,2013-09-27 03:02:00,
2013-09-26 21:45:00,31.0,29.0,-100.00,North,3,7.0,14.0,91,0.00,,,0.21,0.000000,,2013-09-27 03:45:00,
2013-09-26 21:55:00,31.0,29.0,-100.00,North,3,7.0,14.0,91,0.00,,,0.21,0.000000,,2013-09-27 03:55:00,
2013-09-26 22:05:00,31.0,29.0,-100.00,North,3,7.0,14.0,91,0.00,,,0.21,0.000000,,2013-09-27 04:05:00,
2013-09-26 22:44:00,30.0,26.0,-100.00,North,4,8.0,16.0,86,0.00,,,0.20,0.000000,,2013-09-27 04:44:00,
2013-09-26 22:54:00,30.0,26.0,-100.00,North,4,8.0,16.0,86,0.00,,,0.20,0.000000,,2013-09-27 04:54:00,
2013-09-26 23:03:00,30.0,26.0,-100.00,North,4,8.0,16.0,86,0.00,,,0.20,0.000000,,2013-09-27 05:03:00,
2013-09-26 23:43:00,30.0,26.0,-100.00,North,7,8.0,12.0,86,0.00,,,0.20,0.000000,,2013-09-27 05:43:00,
2013-09-26 23:52:00,30.0,26.0,-100.00,North,7,8.0,12.0,86,0.00,,,0.20,0.000000,,2013-09-27 05:52:00,